When you browse on this site, cookies collect data to enhance your experience and personalize the content and advertising you see.
Visit our Privacy Policy to learn more. By continuing to use the site, you agree to this use of cookies and data.
  • In Portugal
  • List of Countries
  • For 7 days
  • Water Temperature
  • Weather Map
  • Weather Widgets
  • user-avatar
    Login

    Hourly Weather Kerewan

    Today, 26 February, Wednesday

    Time Temperature Precipitation Wind Pressure Humidity
    00:00 +30°C° 0 mm 4 mps 756 mmHg 8%
    01:00 +29°C° 0 mm 3 mps 755 mmHg 10%
    02:00 +29°C° 0 mm 3 mps 755 mmHg 11%
    03:00 +29°C° 0 mm 4 mps 755 mmHg 11%
    04:00 +29°C° 0 mm 4 mps 755 mmHg 11%
    05:00 +28°C° 0 mm 5 mps 755 mmHg 11%
    06:00 +30°C° 0 mm 6 mps 755 mmHg 11%
    07:00 +32°C° 0 mm 7 mps 756 mmHg 10%
    08:00 +33°C° 0 mm 8 mps 756 mmHg 10%
    09:00 +37°C° 0 mm 8 mps 756 mmHg 8%
    10:00 +40°C° 0 mm 8 mps 756 mmHg 7%
    11:00 +44°C° 0 mm 8 mps 756 mmHg 6%
    12:00 +45°C° 0 mm 7 mps 755 mmHg 6%
    13:00 +46°C° 0 mm 7 mps 754 mmHg 5%
    14:00 +47°C° 0 mm 6 mps 753 mmHg 5%
    15:00 +47°C° 0 mm 6 mps 753 mmHg 5%
    16:00 +46°C° 0 mm 5 mps 753 mmHg 6%
    17:00 +46°C° 0 mm 5 mps 753 mmHg 6%
    18:00 +40°C° 0 mm 4 mps 754 mmHg 12%
    19:00 +35°C° 0 mm 4 mps 755 mmHg 19%
    20:00 +30°C° 0 mm 3 mps 755 mmHg 25%
    21:00 +29°C° 0 mm 2 mps 756 mmHg 29%
    22:00 +28°C° 0 mm 2 mps 756 mmHg 33%
    23:00 +26°C° 0 mm 2 mps 756 mmHg 37%

    Tomorrow, 27 February, Thursday

    Time Temperature Precipitation Wind Pressure Humidity
    00:00 +26°C° 0 mm 1 mps 755 mmHg 36%
    01:00 +26°C° 0 mm 1 mps 755 mmHg 36%
    02:00 +25°C° 0 mm 1 mps 755 mmHg 35%
    03:00 +25°C° 0 mm 1 mps 755 mmHg 33%
    04:00 +25°C° 0 mm 1 mps 755 mmHg 31%
    05:00 +23°C° 0 mm 0 mps 755 mmHg 29%
    06:00 +26°C° 0 mm 1 mps 756 mmHg 24%
    07:00 +28°C° 0 mm 2 mps 757 mmHg 19%
    08:00 +30°C° 0 mm 2 mps 757 mmHg 15%
    09:00 +34°C° 0 mm 3 mps 757 mmHg 12%
    10:00 +37°C° 0 mm 4 mps 757 mmHg 9%
    11:00 +41°C° 0 mm 4 mps 757 mmHg 7%
    12:00 +43°C° 0 mm 4 mps 756 mmHg 7%
    13:00 +44°C° 0 mm 4 mps 755 mmHg 7%
    14:00 +45°C° 0 mm 4 mps 754 mmHg 7%
    15:00 +45°C° 0 mm 4 mps 754 mmHg 7%
    16:00 +44°C° 0 mm 4 mps 754 mmHg 7%
    17:00 +44°C° 0 mm 4 mps 753 mmHg 7%
    18:00 +38°C° 0 mm 4 mps 754 mmHg 14%
    19:00 +33°C° 0 mm 3 mps 755 mmHg 20%
    20:00 +28°C° 0 mm 3 mps 756 mmHg 27%
    21:00 +27°C° 0 mm 3 mps 756 mmHg 30%
    22:00 +26°C° 0 mm 2 mps 756 mmHg 34%
    23:00 +25°C° 0 mm 2 mps 757 mmHg 37%

    Day after tomorrow, 28 February, Friday

    Time Temperature Precipitation Wind Pressure Humidity
    00:00 +25°C° 0 mm 2 mps 756 mmHg 35%
    01:00 +24°C° 0 mm 1 mps 756 mmHg 34%
    02:00 +24°C° 0 mm 1 mps 756 mmHg 32%
    03:00 +24°C° 0 mm 1 mps 756 mmHg 28%
    04:00 +24°C° 0 mm 1 mps 756 mmHg 23%
    05:00 +23°C° 0 mm 1 mps 756 mmHg 18%
    06:00 +25°C° 0 mm 2 mps 757 mmHg 15%
    07:00 +27°C° 0 mm 2 mps 757 mmHg 11%
    08:00 +28°C° 0 mm 2 mps 758 mmHg 8%
    09:00 +32°C° 0 mm 2 mps 758 mmHg 7%
    10:00 +36°C° 0 mm 3 mps 757 mmHg 6%
    11:00 +39°C° 0 mm 3 mps 757 mmHg 5%
    12:00 +40°C° 0 mm 3 mps 756 mmHg 4%
    13:00 +42°C° 0 mm 2 mps 755 mmHg 4%
    14:00 +43°C° 0 mm 1 mps 755 mmHg 3%
    15:00 +43°C° 0 mm 3 mps 754 mmHg 5%
    16:00 +41°C° 0 mm 4 mps 754 mmHg 6%
    17:00 +40°C° 0 mm 5 mps 754 mmHg 7%
    18:00 +35°C° 0 mm 5 mps 755 mmHg 15%
    19:00 +30°C° 0 mm 5 mps 756 mmHg 22%
    20:00 +27°C° 0 mm 4 mps 756 mmHg 29%
    21:00 +26°C° 0 mm 4 mps 757 mmHg 29%
    22:00 +25°C° 0 mm 4 mps 757 mmHg 29%
    23:00 +25°C° 0 mm 3 mps 758 mmHg 28%

    29 February, Saturday

    Time Temperature Precipitation Wind Pressure Humidity
    00:00 +24°C° 0 mm 3 mps 757 mmHg 29%
    01:00 +22°C° 0 mm 3 mps 757 mmHg 30%
    02:00 +22°C° 0 mm 3 mps 757 mmHg 31%
    03:00 +22°C° 0 mm 3 mps 756 mmHg 31%
    04:00 +21°C° 0 mm 3 mps 756 mmHg 30%
    05:00 +21°C° 0 mm 3 mps 756 mmHg 30%
    06:00 +23°C° 0 mm 4 mps 757 mmHg 26%
    07:00 +25°C° 0 mm 5 mps 757 mmHg 22%
    08:00 +27°C° 0 mm 5 mps 758 mmHg 18%
    09:00 +30°C° 0 mm 6 mps 758 mmHg 14%
    10:00 +35°C° 0 mm 6 mps 757 mmHg 9%
    11:00 +40°C° 0 mm 6 mps 757 mmHg 5%
    12:00 +41°C° 0 mm 5 mps 756 mmHg 4%
    13:00 +43°C° 0 mm 5 mps 755 mmHg 4%
    14:00 +44°C° 0 mm 4 mps 754 mmHg 3%
    15:00 +44°C° 0 mm 4 mps 754 mmHg 4%
    16:00 +44°C° 0 mm 3 mps 754 mmHg 4%
    17:00 +42°C° 0 mm 2 mps 753 mmHg 5%
    18:00 +38°C° 0 mm 3 mps 754 mmHg 12%
    19:00 +34°C° 0 mm 3 mps 755 mmHg 18%
    20:00 +29°C° 0 mm 4 mps 755 mmHg 25%
    21:00 +28°C° 0 mm 4 mps 755 mmHg 27%
    22:00 +27°C° 0 mm 4 mps 756 mmHg 28%
    23:00 +25°C° 0 mm 4 mps 756 mmHg 30%

    1 March, Sunday

    Time Temperature Precipitation Wind Pressure Humidity
    00:00 +25°C° 0 mm 4 mps 756 mmHg 32%
    01:00 +23°C° 0 mm 4 mps 755 mmHg 34%
    02:00 +22°C° 0 mm 4 mps 755 mmHg 36%
    03:00 +22°C° 0 mm 4 mps 755 mmHg 37%
    04:00 +21°C° 0 mm 4 mps 755 mmHg 37%
    05:00 +21°C° 0 mm 4 mps 755 mmHg 38%
    06:00 +22°C° 0 mm 4 mps 755 mmHg 34%
    07:00 +25°C° 0 mm 4 mps 756 mmHg 31%
    08:00 +26°C° 0 mm 5 mps 756 mmHg 27%
    09:00 +30°C° 0 mm 5 mps 756 mmHg 20%
    10:00 +35°C° 0 mm 5 mps 756 mmHg 14%
    11:00 +40°C° 0 mm 5 mps 756 mmHg 7%
    12:00 +42°C° 0 mm 5 mps 755 mmHg 6%
    13:00 +43°C° 0 mm 4 mps 754 mmHg 5%
    14:00 +45°C° 0 mm 4 mps 753 mmHg 4%
    15:00 +44°C° 0 mm 3 mps 753 mmHg 6%
    16:00 +43°C° 0 mm 3 mps 753 mmHg 9%
    17:00 +40°C° 0 mm 3 mps 753 mmHg 11%
    18:00 +37°C° 0 mm 3 mps 753 mmHg 20%
    19:00 +33°C° 0 mm 4 mps 754 mmHg 28%
    20:00 +28°C° 0 mm 4 mps 754 mmHg 37%
    21:00 +27°C° 0 mm 4 mps 755 mmHg 38%
    22:00 +26°C° 0 mm 3 mps 755 mmHg 39%
    23:00 +25°C° 0 mm 2 mps 756 mmHg 41%

    2 March, Monday

    Time Temperature Precipitation Wind Pressure Humidity
    00:00 +25°C° 0 mm 2 mps 755 mmHg 42%
    01:00 +24°C° 0 mm 2 mps 755 mmHg 43%
    02:00 +24°C° 0 mm 2 mps 755 mmHg 44%
    03:00 +24°C° 0 mm 2 mps 755 mmHg 44%
    04:00 +23°C° 0 mm 2 mps 755 mmHg 44%
    05:00 +23°C° 0 mm 2 mps 755 mmHg 44%
    06:00 +25°C° 0 mm 2 mps 755 mmHg 37%
    07:00 +26°C° 0 mm 2 mps 756 mmHg 30%
    08:00 +28°C° 0 mm 3 mps 756 mmHg 24%
    09:00 +33°C° 0 mm 3 mps 756 mmHg 18%
    10:00 +37°C° 0 mm 3 mps 756 mmHg 12%
    11:00 +41°C° 0 mm 4 mps 756 mmHg 5%
    12:00 +43°C° 0 mm 4 mps 755 mmHg 5%
    13:00 +44°C° 0 mm 4 mps 754 mmHg 5%
    14:00 +47°C° 0 mm 5 mps 753 mmHg 5%
    15:00 +45°C° 0 mm 4 mps 753 mmHg 6%
    16:00 +44°C° 0 mm 4 mps 753 mmHg 7%
    17:00 +43°C° 0 mm 3 mps 753 mmHg 8%
    18:00 +38°C° 0 mm 4 mps 754 mmHg 18%
    19:00 +33°C° 0 mm 4 mps 754 mmHg 29%
    20:00 +28°C° 0 mm 5 mps 755 mmHg 39%
    21:00 +26°C° 0 mm 4 mps 755 mmHg 45%
    22:00 +25°C° 0 mm 3 mps 756 mmHg 50%
    23:00 +24°C° 0 mm 3 mps 756 mmHg 56%
    Show more